CW7693 Weather Reports


Display with metric or nautical units.
time (UTC)temp
F
wind
direction
speed
MPH
gust
MPH
rain 1hr
in
rain 24hr
in
rain mn
in
humidity
%
barometer
mb
20260903161804 75 223 4.0 10.0 0.00 0.00 0.00 41 1022.7
20260903161303 75 234 6.0 9.0 0.00 0.00 0.00 40 1022.7
20260903160803 75 209 5.0 12.0 0.00 0.00 0.00 39 1022.7
20260903160303 75 241 3.0 14.0 0.00 0.00 0.00 38 1022.6
20260903155306 76 211 3.0 10.0 0.00 0.00 0.00 37 1022.5
20260903152804 77 225 4.0 8.0 0.00 0.00 0.00 35 1022.5
20260903150304 78 234 2.0 9.0 0.00 0.00 0.00 34 1022.4
20260903145306 78 211 2.0 12.0 0.00 0.00 0.00 33 1022.5
20260903143803 78 230 5.0 14.0 0.00 0.00 0.00 33 1022.5
20260903143303 78 276 7.0 14.0 0.00 0.00 0.00 34 1022.5
20260903142803 78 254 7.0 17.0 0.00 0.00 0.00 33 1022.6
20260903141804 78 242 6.0 14.0 0.00 0.00 0.00 33 1022.5
20260903141304 78 231 5.0 16.0 0.00 0.00 0.00 35 1022.5
20260903140804 79 254 6.0 16.0 0.00 0.00 0.00 34 1022.5
20260903135306 79 0 5.0 10.0 0.00 0.00 0.00 38 1022.3
20260903134303 78 18 1.0 9.0 0.00 0.00 0.00 41 1022.4
20260903133803 78 274 3.0 8.0 0.00 0.00 0.00 43 1022.4
20260903133304 77 258 3.0 7.0 0.00 0.00 0.00 43 1022.4
20260903132804 77 279 5.0 7.0 0.00 0.00 0.00 43 1022.4
20260903132306 77 293 3.0 12.0 0.00 0.00 0.00 44 1022.5
20260903131804 77 250 5.0 12.0 0.00 0.00 0.00 43 1022.4
20260903131304 76 203 6.0 12.0 0.00 0.00 0.00 43 1022.4
20260903125803 76 267 5.0 10.0 0.00 0.00 0.00 44 1022.5
20260903124303 77 246 3.0 13.0 0.00 0.00 0.00 42 1022.7
20260903123804 77 224 4.0 15.0 0.00 0.00 0.00 42 1022.8
20260903123303 78 276 7.0 15.0 0.00 0.00 0.00 40 1022.9
20260903121803 78 265 3.0 10.0 0.00 0.00 0.00 39 1022.9
20260903120804 79 279 6.0 13.0 0.00 0.00 0.00 38 1022.8
20260903120303 78 254 5.0 15.0 0.00 0.00 0.00 39 1022.7
20260903115803 78 271 6.0 20.0 0.00 0.00 0.00 39 1022.9
20260903114304 77 289 6.0 15.0 0.00 0.00 0.00 36 1022.9
20260903113804 77 257 7.0 15.0 0.00 0.00 0.00 34 1023.1
20260903113304 78 266 5.0 13.0 0.00 0.00 0.00 40 1023.1
20260903112305 77 266 7.0 18.0 0.00 0.00 0.00 38 1023.0
20260903110804 76 284 9.0 23.0 0.00 0.00 0.00 36 1023.0
20260903105306 77 272 5.0 17.0 0.00 0.00 0.00 41 1022.9
20260903104304 77 279 6.0 15.0 0.00 0.00 0.00 43 1023.0
20260903103303 76 259 4.0 7.0 0.00 0.00 0.00 45 1023.0
20260903102305 76 265 5.0 13.0 0.00 0.00 0.00 45 1023.0
20260903101803 76 258 6.0 13.0 0.00 0.00 0.00 46 1023.1
20260903101304 75 273 3.0 9.0 0.00 0.00 0.00 50 1023.2
20260903100309 75 352 5.0 7.0 0.00 0.00 0.00 52 1023.0
20260903095803 75 24 3.0 9.0 0.00 0.00 0.00 52 1023.1
20260903094804 74 350 3.0 9.0 0.00 0.00 0.00 54 1023.3
20260903094303 74 2 4.0 8.0 0.00 0.00 0.00 54 1023.3
20260903093803 73 8 3.0 9.0 0.00 0.00 0.00 55 1023.2
20260903093304 73 353 3.0 9.0 0.00 0.00 0.00 57 1023.2
20260903092803 73 346 6.0 12.0 0.00 0.00 0.00 55 1023.4
20260903092306 72 14 5.0 12.0 0.00 0.00 0.00 57 1023.4
20260903091803 72 344 4.0 9.0 0.00 0.00 0.00 58 1023.6
20260903090804 71 342 3.0 7.0 0.00 0.00 0.00 59 1023.7
20260903085803 71 308 3.0 6.0 0.00 0.00 0.00 60 1023.5
20260903085306 72 356 3.0 6.0 0.00 0.00 0.00 59 1023.4
20260903084804 71 321 0.0 3.0 0.00 0.00 0.00 60 1023.3
20260903084304 71 339 2.0 3.0 0.00 0.00 0.00 61 1023.4
20260903082804 70 145 0.0 3.0 0.00 0.00 0.00 63 1023.4
20260903082306 69 145 0.0 3.0 0.00 0.00 0.00 65 1023.5
20260903081804 68 150 0.0 3.0 0.00 0.00 0.00 66 1023.4
20260903075803 65 359 0.0 0.0 0.00 0.00 0.00 73 1023.7
20260903075306 64 355 0.0 0.0 0.00 0.00 0.00 74 1023.7
20260903074304 63 0 0.0 0.0 0.00 0.00 0.00 76 1023.8
20260903073804 62 0 0.0 0.0 0.00 0.00 0.00 76 1023.8
20260903073304 62 0 0.0 0.0 0.00 0.00 0.00 76 1024.0
20260903072306 62 0 0.0 0.0 0.00 0.00 0.00 75 1024.0
20260903071804 63 0 0.0 0.0 0.00 0.00 0.00 75 1024.2
20260903071304 63 0 0.0 0.0 0.00 0.00 0.00 75 1024.2
20260903070804 63 0 0.0 0.0 0.00 0.00 0.00 75 1024.2
20260903070304 63 0 0.0 0.0 0.00 0.00 0.00 74 1024.1
20260903064804 62 0 0.0 0.0 0.00 0.00 0.00 77 1024.0
20260903063804 61 0 0.0 0.0 0.00 0.00 0.00 78 1023.8
20260903062306 60 0 2.0 5.0 0.00 0.00 0.00 79 1023.9
20260903061803 60 0 2.0 5.0 0.00 0.00 0.00 80 1023.8
20260903060803 59 0 2.0 3.0 0.00 0.00 0.00 82 1023.7
20260903055804 58 0 1.0 3.0 0.00 0.00 0.00 82 1023.6
20260903055306 58 0 2.0 5.0 0.00 0.00 0.00 82 1023.5
20260903054304 58 0 0.0 0.0 0.00 0.00 0.00 83 1023.6
20260903053304 58 0 0.0 0.0 0.00 0.00 0.00 83 1023.7
20260903052307 57 0 0.0 0.0 0.00 0.00 0.00 84 1023.6
20260903050804 57 0 0.0 3.0 0.00 0.00 0.00 83 1023.5
20260903050304 57 0 0.0 3.0 0.00 0.00 0.00 83 1023.5
20260903045803 57 0 0.0 3.0 0.00 0.00 0.00 83 1023.4
20260903044803 58 0 0.0 3.0 0.00 0.00 0.00 83 1023.3
20260903044303 58 0 2.0 3.0 0.00 0.00 0.00 82 1023.3
20260903043303 58 0 0.0 0.0 0.00 0.00 0.00 82 1023.2
20260903042803 58 0 0.0 0.0 0.00 0.00 0.00 82 1023.2
20260903042306 58 0 0.0 0.0 0.00 0.00 0.00 82 1023.2
20260903041804 58 1 0.0 0.0 0.00 0.00 0.00 81 1023.2
20260903041303 58 0 0.0 0.0 0.00 0.00 0.00 81 1023.2
20260903040804 58 0 0.0 0.0 0.00 0.00 0.00 80 1023.1
20260903040303 58 0 0.0 0.0 0.00 0.00 0.00 80 1023.3
20260903035803 58 0 0.0 0.0 0.00 0.00 0.00 80 1023.1
20260903035306 58 0 0.0 0.0 0.00 0.00 0.00 81 1023.2
20260903034303 58 0 0.0 0.0 0.00 0.00 0.00 80 1023.1
20260903033803 59 0 0.0 1.0 0.00 0.00 0.00 80 1023.1
20260903033303 59 0 0.0 3.0 0.00 0.00 0.00 80 1023.1
20260903032306 59 0 2.0 3.0 0.00 0.00 0.00 79 1023.2
20260903031804 59 0 1.0 3.0 0.00 0.00 0.00 78 1023.1
20260903031303 59 0 0.0 0.0 0.00 0.00 0.00 78 1023.2
20260903030804 59 0 0.0 1.0 0.00 0.00 0.00 78 1023.1
20260903030304 59 0 0.0 1.0 0.00 0.00 0.00 79 1023.2
20260903025306 59 0 0.0 0.0 0.00 0.00 0.00 78 1023.2
20260903024303 59 0 0.0 3.0 0.00 0.00 0.00 78 1023.2
20260903023303 59 0 0.0 3.0 0.00 0.00 0.00 79 1023.3
20260903022306 59 0 1.0 2.0 0.00 0.00 0.00 80 1023.4
20260903021803 58 12 1.0 3.0 0.00 0.00 0.00 79 1023.4
20260903021303 58 0 2.0 3.0 0.00 0.00 0.00 79 1023.4
20260903020303 59 137 0.0 0.0 0.00 0.00 0.00 78 1023.3
20260903015803 59 157 0.0 1.0 0.00 0.00 0.00 78 1023.3
20260903014803 59 157 1.0 2.0 0.00 0.00 0.00 77 1023.4
20260903014303 59 157 0.0 3.0 0.00 0.00 0.00 77 1023.3
20260903013803 59 157 2.0 3.0 0.00 0.00 0.00 77 1023.4
20260903013303 59 157 0.0 1.0 0.00 0.00 0.00 78 1023.3
20260903012803 59 157 0.0 3.0 0.00 0.00 0.00 78 1023.4
20260903012306 59 157 0.0 3.0 0.00 0.00 0.00 78 1023.4
20260903011804 59 156 2.0 3.0 0.00 0.00 0.00 78 1023.3
20260903010804 59 140 2.0 3.0 0.00 0.00 0.00 78 1023.2
20260903010303 59 224 2.0 3.0 0.00 0.00 0.00 77 1023.2
20260903005803 59 123 0.0 0.0 0.00 0.00 0.00 77 1023.2
20260903004803 59 145 0.0 0.0 0.00 0.00 0.00 77 1023.2
20260903003803 59 144 0.0 0.0 0.00 0.00 0.00 77 1023.2
20260903003303 59 156 0.0 0.0 0.00 0.00 0.00 77 1023.2
20260903002803 59 157 0.0 0.0 0.00 0.00 0.00 76 1023.1
20260903001303 60 157 0.0 0.0 0.00 0.00 0.00 76 1023.0
20260903000803 60 153 0.0 2.0 0.00 0.00 0.00 76 1023.0
20260903000304 60 146 0.0 3.0 0.00 0.00 0.00 76 1023.0
20260902235804 60 45 1.0 3.0 0.00 0.00 0.00 76 1023.1
20260902235305 60 0 1.0 3.0 0.00 0.00 0.00 76 1023.0
20260902234803 60 0 2.0 3.0 0.00 0.00 0.00 76 1023.1
20260902234303 60 0 2.0 3.0 0.00 0.00 0.00 76 1023.2
20260902233303 60 0 2.0 3.0 0.00 0.00 0.00 75 1023.2
20260902232803 60 0 0.0 3.0 0.00 0.00 0.00 75 1023.2
20260902232306 60 0 2.0 7.0 0.00 0.00 0.00 75 1023.1
20260902231803 60 0 2.0 7.0 0.00 0.00 0.00 74 1023.2
20260902231303 61 0 5.0 7.0 0.00 0.00 0.00 74 1023.4
20260902230803 61 0 2.0 3.0 0.00 0.00 0.00 74 1023.3
20260902230304 61 0 1.0 3.0 0.00 0.00 0.00 73 1023.3
20260902225306 61 0 2.0 3.0 0.00 0.00 0.00 73 1023.2
20260902224803 61 0 2.0 3.0 0.00 0.00 0.00 74 1023.3
20260902224303 61 0 2.0 3.0 0.00 0.00 0.00 74 1023.3
20260902223803 61 0 1.0 3.0 0.00 0.00 0.00 74 1023.3
20260902222306 62 0 1.0 2.0 0.00 0.00 0.00 74 1023.5
20260902221303 62 0 2.0 3.0 0.00 0.00 0.00 74 1023.4
20260902220309 62 0 0.0 3.0 0.00 0.00 0.00 73 1023.3
20260902215803 62 0 2.0 3.0 0.00 0.00 0.00 73 1023.1
20260902215306 62 0 2.0 3.0 0.00 0.00 0.00 73 1023.0
20260902214303 63 0 1.0 3.0 0.00 0.00 0.00 72 1023.0
20260902212305 63 0 1.0 5.0 0.00 0.00 0.00 70 1022.8
20260902211803 63 0 2.0 5.0 0.00 0.00 0.00 70 1022.8
20260902211304 64 0 1.0 3.0 0.00 0.00 0.00 69 1022.8
20260902210804 64 0 2.0 5.0 0.00 0.00 0.00 69 1022.8
20260902205804 64 0 4.0 7.0 0.00 0.00 0.00 68 1022.8
20260902202804 65 0 2.0 3.0 0.00 0.00 0.00 65 1022.6
20260902202306 65 0 1.0 3.0 0.00 0.00 0.00 65 1022.6
20260902201803 66 0 2.0 3.0 0.00 0.00 0.00 64 1022.6
20260902201303 66 0 2.0 5.0 0.00 0.00 0.00 63 1022.6
20260902200304 66 0 3.0 5.0 0.00 0.00 0.00 62 1022.5
20260902195803 67 0 2.0 3.0 0.00 0.00 0.00 62 1022.5
20260902195306 67 0 2.0 3.0 0.00 0.00 0.00 61 1022.5
20260902194803 67 0 1.0 3.0 0.00 0.00 0.00 61 1022.5
20260902193803 67 0 1.0 2.0 0.00 0.00 0.00 60 1022.6
20260902193304 67 0 0.0 3.0 0.00 0.00 0.00 59 1022.4
20260902192803 68 0 1.0 3.0 0.00 0.00 0.00 59 1022.4
20260902191303 68 0 1.0 3.0 0.00 0.00 0.00 58 1022.3
20260902190304 69 0 0.0 3.0 0.00 0.00 0.00 57 1022.3
20260902184803 70 0 1.0 3.0 0.00 0.00 0.00 54 1022.2
20260902184303 70 0 1.0 2.0 0.00 0.00 0.00 53 1022.1
20260902183804 70 0 1.0 3.0 0.00 0.00 0.00 52 1022.1
20260902183304 71 0 2.0 3.0 0.00 0.00 0.00 51 1022.0
20260902182306 71 0 0.0 2.0 0.00 0.00 0.00 48 1021.8
20260902181804 71 0 0.0 3.0 0.00 0.00 0.00 48 1021.7
20260902180803 72 0 1.0 3.0 0.00 0.00 0.00 47 1021.7
20260902180304 72 0 1.0 3.0 0.00 0.00 0.00 46 1021.6
20260902175804 72 0 2.0 3.0 0.00 0.00 0.00 45 1021.6
20260902175307 72 0 2.0 3.0 0.00 0.00 0.00 45 1021.6
20260902173804 72 220 2.0 8.0 0.00 0.00 0.00 47 1021.3
20260902172308 73 240 2.0 10.0 0.00 0.00 0.00 47 1021.3
20260902171804 73 224 4.0 9.0 0.00 0.00 0.00 48 1021.3
20260902171303 73 215 5.0 7.0 0.00 0.00 0.00 48 1021.3
20260902170803 73 232 3.0 6.0 0.00 0.00 0.00 48 1021.1
20260902170303 74 192 2.0 6.0 0.00 0.00 0.00 47 1021.1
20260902165803 74 260 3.0 6.0 0.00 0.00 0.00 49 1021.0
20260902165308 74 296 1.0 8.0 0.00 0.00 0.00 48 1021.0
20260902164803 74 350 2.0 8.0 0.00 0.00 0.00 48 1021.1
20260902164304 74 302 3.0 7.0 0.00 0.00 0.00 48 1021.0
20260902163804 75 290 4.0 7.0 0.00 0.00 0.00 47 1021.0
20260902163303 75 305 4.0 8.0 0.00 0.00 0.00 47 1021.0
20260902162306 76 269 3.0 7.0 0.00 0.00 0.00 47 1021.0